[[{"header":{"parameterUnit":"m.s-1","parameterCategory":1,"la1":30.2991,"la2":30.254,"lo1":-89.0895,"lo2":-89.0444,"dx":0.0017,"dy":0.0017,"nx":28,"ny":28,"refTime":"2023-01-27T15:00:00:Z","depth":0,"parameterNumber":2,"parameterNumberName":"U-component_of_WINDS"},"data":[0,0,0,0,0,0,0,0,0,0,0,0,0,0,0,0,0,0,0,0,0,0,0,0,0,0,0,0,0,0,0,0,0,0,0,0,0,0,0,0,0,0,0,0,0,0,0,0,0,0,0,0,0,0,0,0,0,0,-3.0767,-3.0768,0,-3.0856,-3.0857,-3.0858,-3.0849,-3.0847,-3.0846,-3.0845,-3.0934,-3.0937,-3.0941,0,0,0,0,0,0,0,0,0,0,0,0,0,-3.0587,-3.0591,-3.0767,-3.0768,-3.0769,-3.0856,-3.0857,-3.0858,-3.0849,-3.0847,-3.0846,-3.0844,-3.0933,-3.0937,-3.0941,0,0,0,0,0,0,0,0,0,0,0,0,0,-3.067,-3.0592,-3.0767,-3.0775,-3.0777,-3.0856,-3.0857,-3.0859,-3.0849,-3.0847,-3.0845,-3.0843,-3.0931,-3.0936,-3.0942,-3.1018,0,0,-3.0959,-3.0961,0,0,0,0,0,0,0,0,-3.0665,-3.0676,-3.0773,-3.0774,-3.0776,-3.0839,-3.0826,-3.0912,-3.085,-3.0822,-3.0845,-3.0842,-3.0904,-3.0911,-3.0933,-3.1022,-3.1026,-3.0959,-3.0963,-3.0965,-3.0966,0,0,0,0,0,0,0,-3.0659,-3.0672,-3.0802,-3.0774,-3.0776,-3.0774,-3.0783,-3.0843,-3.0873,-3.0824,-3.0823,-3.0834,-3.0904,-3.0927,-3.0935,-3.1027,-3.0959,-3.0964,-3.0967,-3.0969,-3.1183,-3.1185,0,0,0,0,0,0,-3.0652,-3.0668,-3.0799,-3.0805,-3.0714,-3.0779,-3.0789,-3.0821,-3.0873,-3.0878,-3.0836,-3.0833,-3.0919,-3.0928,-3.0938,-3.1029,-3.0965,-3.097,-3.0973,-3.1181,-3.1183,-3.1186,0,0,0,0,0,0,-3.0648,-3.0664,-3.0796,-3.0736,-3.0753,-3.0784,-3.082,-3.0824,-3.0847,-3.0882,-3.0887,-3.0854,-3.0918,-3.093,-3.0998,-3.1032,-3.0973,-3.0978,-3.1178,-3.1181,-3.1185,-3.1213,0,0,0,0,0,0,-3.0643,-3.0662,-3.0692,-3.0737,-3.0756,-3.0855,-3.0822,-3.0827,-3.0857,-3.0854,-3.09,-3.0905,-3.0917,-3.099,-3.1004,-3.1039,-3.0982,-3.1175,-3.1179,-3.1184,-3.121,-3.1218,-3.1224,0,0,0,0,0,-3.0636,-3.0696,-3.0693,-3.0709,-3.0793,-3.0857,-3.0868,-3.088,-3.0859,-3.0889,-3.0912,-3.0904,-3.1027,-3.0997,-3.1012,-3.105,-3.1173,-3.1178,-3.1183,-3.1206,-3.1216,-3.1224,0,0,0,0,0,0,-3.0653,-3.0702,-3.0699,-3.0775,-3.0812,-3.0855,-3.0892,-3.089,-3.0933,-3.0929,-3.0943,-3.0953,-3.1021,-3.1043,-3.1008,-3.1126,-3.1097,-3.1106,-3.1109,-3.1119,-3.1126,-3.1118,-3.0986,0,0,0,0,0,-3.0666,-3.0713,-3.0754,-3.0817,-3.0835,-3.0861,-3.0889,-3.0896,-3.0934,-3.0949,-3.0977,-3.1014,-3.1061,-3.1091,-3.1136,-3.1213,-3.1223,-3.1247,-3.1254,-3.126,-3.1267,-3.1309,-3.1319,-3.1204,-3.1203,-3.1203,0,0,-3.0692,-3.0724,-3.0754,-3.0821,-3.085,-3.0899,-3.0874,-3.0926,-3.0962,-3.0957,-3.1023,-3.1045,-3.1087,-3.116,-3.1193,-3.1179,-3.1301,-3.1267,-3.1271,-3.1275,-3.1315,-3.1326,-3.1336,-3.1207,-3.1206,-3.1206,0,0,-3.0764,-3.0794,-3.0849,-3.088,-3.0925,-3.0942,-3.0955,-3.0999,-3.1013,-3.108,-3.1077,-3.112,-3.1201,-3.1231,-3.1256,-3.1342,-3.1336,-3.1356,-3.1394,-3.1435,-3.1444,-3.1452,-3.1481,-3.1491,-3.1363,-3.1363,-3.1363,0,-3.079,-3.0864,-3.0878,-3.0931,-3.0961,-3.0959,-3.1015,-3.1044,-3.1101,-3.1121,-3.1106,-3.1207,-3.1235,-3.1315,-3.1336,-3.1357,-3.1372,-3.135,-3.1441,-3.145,-3.1457,-3.1485,-3.1496,-3.1365,-3.1365,-3.1365,-3.1365,0,-3.0894,-3.0945,-3.0984,-3.104,-3.1074,-3.1129,-3.1151,-3.1184,-3.1188,-3.1206,-3.1274,-3.1309,-3.136,-3.138,-3.1385,-3.1461,-3.1451,-3.1438,-3.1409,-3.147,-3.1497,-3.1507,-3.1368,-3.1367,-3.1367,-3.1366,0,0,-3.0977,-3.1041,-3.1055,-3.108,-3.113,-3.117,-3.1225,-3.1276,-3.1303,-3.1344,-3.1389,-3.1458,-3.1447,-3.1476,-3.1484,-3.152,-3.1584,-3.1503,-3.1505,-3.1516,-3.1669,-3.1676,-3.1689,-3.1582,-3.1584,-3.1586,-3.1665,0,-3.1053,-3.1149,-3.1164,-3.1249,-3.1296,-3.1296,-3.1343,-3.1379,-3.1398,-3.1441,-3.1462,-3.151,-3.1493,-3.151,-3.1546,-3.1569,-3.1615,-3.1564,-3.1623,-3.1625,-3.161,-3.1703,-3.1711,-3.1784,-3.1675,-3.1677,-3.1678,0,-3.1154,-3.1197,-3.1286,-3.133,-3.1351,-3.1393,-3.1441,-3.1483,-3.1523,-3.1534,-3.1568,-3.1572,-3.1628,-3.1598,-3.1675,-3.164,-3.1666,-3.1681,-3.1684,-3.1688,-3.1654,-3.1708,-3.1807,-3.1818,-3.1695,-3.1694,-3.1692,0,-3.1204,-3.1284,-3.1348,-3.137,-3.1423,-3.1453,-3.1476,-3.1515,-3.1545,-3.1588,-3.1607,-3.1656,-3.1682,-3.1719,-3.1736,-3.1713,-3.1812,-3.1783,-3.1822,-3.1821,-3.1841,-3.1839,-3.1944,-3.186,-3.186,-3.186,-3.186,0,-3.1286,-3.134,-3.1371,-3.141,-3.1471,-3.1488,-3.1548,-3.157,-3.1605,-3.1648,-3.1652,-3.1692,-3.1713,-3.1757,-3.177,-3.1831,-3.1844,-3.1854,-3.1856,-3.1852,-3.1851,-3.1868,-3.1862,-3.1863,-3.1862,-3.1862,-3.1861,0,-3.1351,-3.1374,-3.1444,-3.1489,-3.1501,-3.1544,-3.1582,-3.162,-3.164,-3.1694,-3.1708,-3.1738,-3.179,-3.1811,-3.1874,-3.1883,-3.1953,-3.1953,-3.1939,-3.194,-3.1976,-3.1972,-3.2094,-3.2111,-3.2018,-3.2019,-3.2019,0,-3.1401,-3.1443,-3.1493,-3.1522,-3.1546,-3.1594,-3.1625,-3.1644,-3.1676,-3.1725,-3.1757,-3.1809,-3.1851,-3.1933,-3.196,-3.2008,-3.2008,-3.2048,-3.2015,-3.201,-3.2007,-3.2004,-3.2007,-3.2053,-3.2054,-3.2055,-3.2055,0,-3.1487,-3.1496,-3.1541,-3.159,-3.1627,-3.1667,-3.1705,-3.1729,-3.1753,-3.1789,-3.1842,-3.1875,-3.194,-3.199,-3.204,-3.2064,-3.2064,-3.2066,-3.2077,-3.2072,-3.2062,-3.2067,-3.1954,-3.2062,-3.2062,-3.2061,-3.2061,-3.206,-3.1545,-3.1582,-3.1623,-3.1673,-3.1704,-3.174,-3.1777,-3.1802,-3.1846,-3.1901,-3.1909,-3.1965,-3.2005,-3.2073,-3.2099,-3.2143,-3.2132,-3.2149,-3.2153,-3.2156,-3.2158,-3.2057,-3.2152,-3.2152,-3.2152,-3.2151,-3.2151,0,-3.163,-3.1656,-3.1702,-3.1756,-3.1795,-3.1793,-3.1835,-3.1868,-3.1917,-3.1955,-3.1996,-3.2057,-3.2107,-3.2139,-3.2189,-3.2218,-3.2219,-3.223,-3.2227,-3.2232,-3.2165,-3.2149,-3.2228,-3.2228,-3.2228,-3.2228,-3.2228,-3.2228,-3.1679,-3.1741,-3.1755,-3.1833,-3.1859,-3.1915,-3.1939,-3.1972,-3.2002,-3.207,-3.2111,-3.2132,-3.2167,-3.222,-3.2265,-3.2273,-3.2291,-3.2303,-3.231,-3.2245,-3.2237,-3.223,-3.2215,-3.2307,-3.2307,-3.2374,-3.2375,-3.2375]},{"header":{"parameterUnit":"m.s-1","parameterCategory":1,"la1":30.2991,"la2":30.254,"lo1":-89.0895,"lo2":-89.0444,"dx":0.0017,"dy":0.0017,"nx":28,"ny":28,"refTime":"2023-01-27T15:00:00:Z","depth":0,"parameterNumber":3,"parameterNumberName":"V-component_of_WINDS"},"data":[0,0,0,0,0,0,0,0,0,0,0,0,0,0,0,0,0,0,0,0,0,0,0,0,0,0,0,0,0,0,0,0,0,0,0,0,0,0,0,0,0,0,0,0,0,0,0,0,0,0,0,0,0,0,0,0,0,0,3.4682,3.4683,0,3.475,3.475,3.4751,3.4704,3.4702,3.47,3.4698,3.4759,3.4762,3.4765,0,0,0,0,0,0,0,0,0,0,0,0,0,3.4505,3.4509,3.4682,3.4683,3.4684,3.475,3.475,3.4751,3.4704,3.4702,3.4699,3.4697,3.4757,3.4762,3.4766,0,0,0,0,0,0,0,0,0,0,0,0,0,3.4578,3.451,3.4682,3.4669,3.4668,3.4749,3.4751,3.4752,3.4705,3.4702,3.4698,3.4696,3.4756,3.4761,3.4766,3.4862,0,0,3.4783,3.4785,0,0,0,0,0,0,0,0,3.4574,3.4585,3.467,3.467,3.4669,3.4715,3.471,3.4788,3.4706,3.4691,3.4698,3.4694,3.4746,3.4752,3.4771,3.4865,3.4868,3.4783,3.4786,3.4789,3.479,0,0,0,0,0,0,0,3.4569,3.4582,3.4709,3.4671,3.4671,3.4657,3.4664,3.4725,3.4735,3.4692,3.4688,3.4697,3.4745,3.4766,3.4772,3.4869,3.4783,3.4788,3.4791,3.4793,3.5043,3.5046,0,0,0,0,0,0,3.4566,3.4578,3.4707,3.4711,3.4613,3.4662,3.467,3.4704,3.4734,3.4736,3.47,3.4695,3.4759,3.4766,3.4774,3.4887,3.4789,3.4794,3.4797,3.504,3.5044,3.5047,0,0,0,0,0,0,3.4563,3.4578,3.4704,3.4643,3.4658,3.4669,3.4707,3.4707,3.4727,3.4741,3.4741,3.472,3.4757,3.4767,3.4841,3.4889,3.4796,3.4801,3.5036,3.5041,3.5046,3.5115,0,0,0,0,0,0,3.4558,3.4577,3.4616,3.4645,3.4662,3.4772,3.471,3.471,3.4738,3.4732,3.476,3.4761,3.4755,3.4833,3.4846,3.4894,3.4805,3.5031,3.5038,3.5044,3.5108,3.5122,3.5133,0,0,0,0,0,3.4552,3.4631,3.4618,3.4634,3.471,3.4775,3.4784,3.4778,3.4742,3.4779,3.4788,3.476,3.4882,3.4841,3.4856,3.4906,3.5028,3.5036,3.5043,3.5103,3.5119,3.5133,0,0,0,0,0,0,3.4603,3.4634,3.462,3.4712,3.4741,3.4767,3.4813,3.4795,3.4833,3.4826,3.4814,3.482,3.4898,3.491,3.4864,3.5,3.4949,3.496,3.4989,3.5005,3.5017,3.5011,3.481,0,0,0,0,0,3.4626,3.4679,3.4702,3.478,3.4796,3.4803,3.483,3.4823,3.4852,3.4863,3.4877,3.4904,3.4948,3.4978,3.5019,3.5111,3.5115,3.5152,3.5165,3.5175,3.5183,3.5231,3.5248,3.5073,3.5073,3.5073,0,0,3.4672,3.4696,3.4729,3.4791,3.4813,3.4865,3.4813,3.487,3.4908,3.4871,3.4942,3.4954,3.4983,3.5066,3.5103,3.5078,3.5233,3.5185,3.5193,3.5196,3.5241,3.5257,3.5272,3.5078,3.5077,3.5076,0,0,3.4782,3.4807,3.4874,3.4898,3.4934,3.4938,3.4954,3.4983,3.499,3.5062,3.5035,3.5079,3.5156,3.5178,3.5199,3.5319,3.5294,3.5333,3.5397,3.5443,3.5457,3.5469,3.551,3.5525,3.5342,3.5342,3.5342,0,3.4834,3.4914,3.491,3.497,3.4997,3.497,3.5037,3.5059,3.5105,3.5123,3.5096,3.5192,3.521,3.5297,3.5326,3.5345,3.5361,3.5328,3.5456,3.5468,3.5479,3.5518,3.5533,3.5346,3.5346,3.5345,3.5345,0,3.4975,3.5031,3.508,3.5129,3.5162,3.5225,3.5228,3.5261,3.5252,3.5258,3.5331,3.5352,3.5397,3.5418,3.5408,3.5504,3.5487,3.5458,3.5406,3.55,3.5536,3.5551,3.5353,3.5351,3.535,3.5349,0,0,3.5116,3.5164,3.5182,3.5203,3.5241,3.5283,3.5344,3.5391,3.5419,3.5452,3.5501,3.5568,3.5542,3.5566,3.5558,3.56,3.5691,3.5565,3.5566,3.5586,3.5796,3.5815,3.5833,3.5677,3.568,3.5682,3.5792,0,3.5227,3.5336,3.5335,3.5435,3.5485,3.5461,3.5514,3.5542,3.555,3.5592,3.5599,3.5646,3.5609,3.5623,3.5664,3.5672,3.5733,3.5664,3.5719,3.5721,3.571,3.5852,3.5873,3.5976,3.5807,3.5809,3.5811,0,3.537,3.5411,3.5517,3.5548,3.5568,3.5616,3.5659,3.5701,3.5731,3.5733,3.5762,3.5748,3.5807,3.5757,3.5837,3.5791,3.5813,3.5821,3.5825,3.5827,3.577,3.5856,3.6009,3.6023,3.5833,3.5832,3.583,0,3.546,3.5541,3.5615,3.5634,3.5673,3.5707,3.5724,3.5752,3.578,3.5817,3.5834,3.5877,3.5899,3.5932,3.5929,3.5893,3.601,3.5959,3.6011,3.6011,3.6034,3.6032,3.6191,3.6054,3.6054,3.6053,3.6053,0,3.5582,3.5647,3.5656,3.5701,3.5773,3.5771,3.5841,3.5854,3.5879,3.5924,3.5906,3.5948,3.5944,3.5986,3.5984,3.605,3.606,3.6062,3.606,3.6062,3.6062,3.6075,3.6067,3.6057,3.6056,3.6056,3.6055,0,3.5693,3.5703,3.5781,3.5812,3.5822,3.5873,3.5898,3.5939,3.5947,3.6004,3.6017,3.6028,3.6077,3.6078,3.6133,3.6132,3.6212,3.6203,3.6202,3.62,3.6251,3.6245,3.6421,3.6443,3.6294,3.6295,3.6296,0,3.5769,3.5819,3.5857,3.5887,3.5907,3.5956,3.5986,3.5985,3.6016,3.6055,3.6092,3.6139,3.6177,3.6255,3.6266,3.6308,3.6299,3.6358,3.6304,3.6305,3.6297,3.6293,3.6297,3.6367,3.6368,3.637,3.6371,0,3.5902,3.5905,3.595,3.5997,3.6034,3.607,3.6103,3.6128,3.6131,3.6167,3.6218,3.6248,3.6306,3.6352,3.6393,3.6407,3.6389,3.6388,3.6402,3.6403,3.64,3.64,3.6228,3.6383,3.6382,3.6381,3.638,3.638,3.5996,3.604,3.6073,3.6124,3.615,3.6182,3.6222,3.6236,3.628,3.6328,3.6325,3.6381,3.6409,3.6463,3.6481,3.6523,3.6503,3.6523,3.6528,3.6532,3.6537,3.6396,3.6531,3.6531,3.653,3.653,3.653,0,3.6127,3.6148,3.6195,3.6244,3.6283,3.6267,3.6303,3.6336,3.6386,3.6416,3.6454,3.6512,3.6558,3.6574,3.6617,3.6648,3.664,3.6659,3.6655,3.6658,3.6554,3.6537,3.6664,3.6664,3.6664,3.6664,3.6664,3.6664,3.6199,3.6271,3.6277,3.6361,3.6381,3.6438,3.646,3.6489,3.6512,3.6579,3.6618,3.6629,3.6652,3.6698,3.6738,3.6741,3.6757,3.6778,3.6778,3.6679,3.6666,3.6653,3.6636,3.6783,3.6783,3.6878,3.6879,3.688]}]]